Flag for Canada Weather past 2 weeks in Fort Simpson, Northwest Territories, Canada

Now
52 °F

Passing clouds.


Feels Like: 49 °F
Forecast: 39 / 54 °F
Wind: 9 mph from West

Location: Fort Simpson

Current Time: Sep 23, 2014 at 4:29:38 AM

Latest Report: Sep 23, 2014 at 4:00 AM


Visibility: 15 mi

Pressure: 29.60 "Hg

Humidity: 47%

Dew point: 32 °F

Location of Fort SimpsonLocation

Historic Weather in Fort Simpson — Graph

°F

Fort Simpson temperature yesterday

Maximum temperature yesterday: 73 °F (at 3:00 PM)
Minimum temperature yesterday: 50 °F (at 7:00 AM)
Average temperature yesterday: 60 °F

Past Weeks' High & Low Weather Summary

 TemperatureHumidityPressure
High73 °F (Sep 22, 3:00 PM)100% (Sep 18, 1:00 AM)30.47 "Hg (Sep 18, 1:00 AM)
Low27 °F (Sep 9, 7:00 AM)19% (Sep 10, 4:00 PM)29.35 "Hg (Sep 22, 1:00 PM)
Average48 °F68%29.88 "Hg
* Reported Sep 8 3:00 AM — Sep 23 3:00 AM, Fort Simpson, Weather by CustomWeather, © 2014

Note: Actual official high and low records may vary slightly from our data, if they occured in-between our weather recording intervals... More about our weather records

Advertising

Fort Simpson weather history for previous 24 hours

 ConditionsComfort  
Time TempWeatherWind HumidityBarometerVisibility
3:00 AM
Sep 23
54 °FClear.9 mph41%29.56 "Hg15 mi
2:00 AM55 °FPassing clouds.10 mph38%29.54 "Hg15 mi
1:00 AM55 °FPassing clouds.9 mph38%29.53 "Hg15 mi
12:00 AM59 °FPassing clouds.12 mph34%29.52 "Hg15 mi
11:00 PM
Sep 22
59 °FPassing clouds.9 mph34%29.51 "Hg15 mi
10:00 PM61 °FPassing clouds.10 mph31%29.49 "Hg15 mi
9:00 PM64 °FPassing clouds.12 mph26%29.47 "Hg15 mi
8:00 PM66 °FPassing clouds.14 mph24%29.44 "Hg15 mi
7:00 PM68 °FPassing clouds.14 mph23%29.43 "Hg15 mi
6:00 PM70 °FPassing clouds.20 mph21%29.42 "Hg15 mi
5:00 PM72 °FPassing clouds.17 mph22%29.41 "Hg15 mi
4:00 PM72 °FPassing clouds.20 mph22%29.39 "Hg15 mi
3:00 PM73 °FPassing clouds.21 mph23%29.37 "Hg15 mi
2:00 PM66 °FBroken clouds.12 mph40%29.36 "Hg15 mi
1:00 PM66 °FPartly sunny.16 mph43%29.35 "Hg15 mi
12:00 PM59 °FBroken clouds.6 mph63%29.36 "Hg15 mi
11:00 AM54 °FPartly sunny.5 mph77%29.36 "Hg15 mi
10:00 AM52 °FPartly sunny.7 mph77%29.37 "Hg15 mi
9:00 AM50 °FBroken clouds.3 mph76%29.37 "Hg15 mi
8:00 AM50 °FPassing clouds.No wind76%29.38 "Hg15 mi
7:00 AM50 °FPassing clouds.5 mph76%29.36 "Hg15 mi
6:00 AM52 °FPassing clouds.6 mph72%29.38 "Hg15 mi
5:00 AM54 °FPassing clouds.6 mph67%29.39 "Hg15 mi
4:00 AM55 °FPassing clouds.7 mph63%29.42 "Hg15 mi
Weather by CustomWeather, © 2014

See weather overviewHow to use our weather pages